EWG73E EDDK-LIMC

Flight info

Callsign EWG73E
Flight time 1h 7m
Altitude 32000
Route KUMIK2Q KUMIK Y854 BOMBI DCT GIGET DCT ABUKA DCT KRH DCT NATOR/N0448F330 DCT DITON DCT BASGO/N0448F290 Z424 AKASU/N0381F190 Z424 RIXUV
Aircraft A320/M-SDE3FGHIRWY/LB1

Departure

Time 2026-04-22 19:07
Airport Cologne Bonn Airport (EDDK)

Arrival

Time 2026-04-22 20:14
Airport Milan Malpensa International Airport (LIMC)
Time Latitude Longitude Altitude Speed Heading
2026-04-22 18:26 50.87876 7.12451 232 ft 0 kts 288°
2026-04-22 18:49 50.87874 7.12461 237 ft 3 kts 287°
2026-04-22 18:50 50.87868 7.12492 236 ft 3 kts 287°
2026-04-22 18:50 50.87861 7.12525 235 ft 3 kts 287°
2026-04-22 18:50 50.87854 7.12561 233 ft 3 kts 291°
2026-04-22 18:50 50.87847 7.12583 233 ft 2 kts 334°
2026-04-22 18:51 50.87836 7.12586 237 ft 2 kts 14°
2026-04-22 18:51 50.87829 7.12583 233 ft 0 kts 16°
2026-04-22 18:54 50.87830 7.12583 233 ft 1 kts 16°
2026-04-22 18:54 50.87860 7.12597 232 ft 7 kts 17°
2026-04-22 18:54 50.87918 7.12628 232 ft 10 kts 24°
2026-04-22 18:54 50.87966 7.12683 234 ft 0 kts 46°
2026-04-22 19:01 50.87970 7.12690 233 ft 2 kts 47°
2026-04-22 19:01 50.87989 7.12733 238 ft 7 kts 60°
2026-04-22 19:01 50.87996 7.12756 236 ft 0 kts 66°
2026-04-22 19:04 50.87996 7.12758 236 ft 2 kts 66°
2026-04-22 19:05 50.88008 7.12835 239 ft 11 kts 84°
2026-04-22 19:05 50.87992 7.12968 239 ft 14 kts 119°
2026-04-22 19:05 50.87943 7.13060 239 ft 0 kts 138°
2026-04-22 19:06 50.87936 7.13070 239 ft 11 kts 138°
2026-04-22 19:06 50.87726 7.13375 239 ft 76 kts 138°
2026-04-22 19:06 50.87186 7.14159 248 ft 133 kts 137°
2026-04-22 19:07 50.85548 7.16499 934 ft 173 kts 138°
2026-04-22 19:07 50.84618 7.17808 1467 ft 184 kts 138°
2026-04-22 19:07 50.83636 7.19193 1993 ft 197 kts 138°
2026-04-22 19:07 50.82552 7.20734 2367 ft 221 kts 137°
2026-04-22 19:08 50.81631 7.22679 3204 ft 221 kts 112°
2026-04-22 19:08 50.81292 7.25047 4041 ft 226 kts 96°
2026-04-22 19:08 50.81094 7.27624 4559 ft 249 kts 97°
2026-04-22 19:08 50.80866 7.30491 4747 ft 269 kts 97°
2026-04-22 19:09 50.80625 7.33430 5385 ft 272 kts 97°
2026-04-22 19:09 50.80379 7.36346 6321 ft 275 kts 97°
2026-04-22 19:09 50.80122 7.39362 7246 ft 279 kts 98°
2026-04-22 19:09 50.79859 7.42392 7854 ft 282 kts 98°
2026-04-22 19:10 50.79590 7.45468 8656 ft 285 kts 98°
2026-04-22 19:10 50.79317 7.48555 9506 ft 289 kts 98°
2026-04-22 19:10 50.79040 7.51659 10302 ft 294 kts 98°
2026-04-22 19:10 50.78748 7.54945 10783 ft 311 kts 98°
2026-04-22 19:11 50.78486 7.58419 11195 ft 327 kts 92°
2026-04-22 19:11 50.78642 7.62099 11588 ft 344 kts 80°
2026-04-22 19:11 50.79081 7.65892 12026 ft 356 kts 79°
2026-04-22 19:11 50.79526 7.69786 12692 ft 361 kts 80°
2026-04-22 19:12 50.79966 7.73712 13395 ft 365 kts 80°
2026-04-22 19:12 50.80407 7.77677 14077 ft 369 kts 80°
2026-04-22 19:12 50.80854 7.81689 14750 ft 372 kts 80°
2026-04-22 19:12 50.81304 7.85743 15378 ft 376 kts 80°
2026-04-22 19:13 50.81753 7.89825 15995 ft 379 kts 80°
2026-04-22 19:13 50.82202 7.93951 16603 ft 383 kts 80°
2026-04-22 19:13 50.82533 7.98148 17209 ft 386 kts 89°
2026-04-22 19:13 50.82277 8.02381 17816 ft 390 kts 103°
2026-04-22 19:14 50.81390 8.06436 18418 ft 393 kts 116°
2026-04-22 19:14 50.79909 8.10080 19025 ft 396 kts 130°
2026-04-22 19:14 50.77912 8.13088 19626 ft 400 kts 144°
2026-04-22 19:14 50.75571 8.15513 20217 ft 404 kts 148°
2026-04-22 19:15 50.73193 8.17901 20792 ft 407 kts 148°
2026-04-22 19:15 50.70795 8.20308 21333 ft 410 kts 148°
2026-04-22 19:15 50.68378 8.22732 21830 ft 414 kts 148°
2026-04-22 19:15 50.66157 8.24959 22290 ft 416 kts 148°
2026-04-22 19:16 50.63710 8.27415 22754 ft 420 kts 148°
2026-04-22 19:16 50.61237 8.29896 23211 ft 423 kts 148°
2026-04-22 19:16 50.58781 8.32355 23659 ft 425 kts 148°
2026-04-22 19:16 50.56273 8.34860 24102 ft 428 kts 148°
2026-04-22 19:17 50.53755 8.37369 24528 ft 430 kts 148°
2026-04-22 19:17 50.51221 8.39887 24931 ft 433 kts 148°
2026-04-22 19:17 50.48665 8.42421 25315 ft 435 kts 148°
2026-04-22 19:17 50.46097 8.44968 25691 ft 438 kts 148°
2026-04-22 19:18 50.43520 8.47525 26056 ft 440 kts 148°
2026-04-22 19:18 50.40918 8.50102 26421 ft 443 kts 148°
2026-04-22 19:18 50.38299 8.52691 26771 ft 446 kts 148°
2026-04-22 19:18 50.35631 8.55203 27122 ft 449 kts 150°
2026-04-22 19:19 50.33093 8.57416 27457 ft 450 kts 152°
2026-04-22 19:19 50.30314 8.59711 27801 ft 453 kts 153°
2026-04-22 19:19 50.27501 8.61973 28125 ft 455 kts 153°
2026-04-22 19:19 50.24680 8.64241 28459 ft 457 kts 153°
2026-04-22 19:20 50.21856 8.66534 28777 ft 459 kts 152°
2026-04-22 19:20 50.19028 8.68865 29099 ft 461 kts 152°
2026-04-22 19:20 50.16193 8.71224 29403 ft 462 kts 152°
2026-04-22 19:20 50.13361 8.73594 29797 ft 462 kts 152°
2026-04-22 19:21 50.10527 8.75942 30232 ft 460 kts 154°
2026-04-22 19:21 50.07537 8.77661 30631 ft 459 kts 167°
2026-04-22 19:21 50.04372 8.78193 30997 ft 458 kts 182°
2026-04-22 19:21 50.01211 8.77628 31355 ft 458 kts 189°
2026-04-22 19:22 49.98061 8.76856 31696 ft 458 kts 189°
2026-04-22 19:22 49.94920 8.76050 32055 ft 458 kts 189°
2026-04-22 19:22 49.91821 8.75237 32424 ft 457 kts 190°
2026-04-22 19:22 49.88679 8.74410 32803 ft 457 kts 190°
2026-04-22 19:23 49.85545 8.73593 32977 ft 457 kts 189°
2026-04-22 19:23 49.79308 8.71999 33009 ft 457 kts 189°
2026-04-22 19:24 49.73027 8.70413 33009 ft 457 kts 189°
2026-04-22 19:24 49.66750 8.68833 33009 ft 457 kts 189°
2026-04-22 19:25 49.60471 8.67245 33009 ft 457 kts 189°
2026-04-22 19:25 49.54210 8.65666 33016 ft 456 kts 189°
2026-04-22 19:26 49.47951 8.64093 33017 ft 456 kts 189°
2026-04-22 19:26 49.41690 8.62527 33017 ft 456 kts 189°
2026-04-22 19:27 49.35426 8.60956 33017 ft 456 kts 189°
2026-04-22 19:27 49.29166 8.59402 33017 ft 456 kts 189°
2026-04-22 19:28 49.22946 8.57857 33017 ft 456 kts 189°
2026-04-22 19:28 49.16686 8.56306 33017 ft 456 kts 189°
2026-04-22 19:29 49.10424 8.54753 33018 ft 456 kts 189°
2026-04-22 19:29 49.04165 8.53209 33016 ft 456 kts 189°
2026-04-22 19:30 48.98915 8.51918 33016 ft 456 kts 189°
2026-04-22 19:30 48.91622 8.50130 33012 ft 457 kts 189°
2026-04-22 19:31 48.85343 8.48601 33012 ft 457 kts 189°
2026-04-22 19:31 48.79052 8.47063 33006 ft 459 kts 189°
2026-04-22 19:32 48.72733 8.45529 33001 ft 460 kts 189°
2026-04-22 19:32 48.66405 8.43992 33006 ft 461 kts 189°
2026-04-22 19:33 48.60078 8.42456 33010 ft 460 kts 189°
2026-04-22 19:33 48.53757 8.40935 33015 ft 460 kts 189°
2026-04-22 19:34 48.47479 8.39425 33012 ft 460 kts 189°
2026-04-22 19:34 48.41157 8.37902 33012 ft 460 kts 189°
2026-04-22 19:35 48.34845 8.36391 33022 ft 458 kts 189°
2026-04-22 19:35 48.29612 8.35134 33020 ft 458 kts 189°
2026-04-22 19:36 48.22245 8.33378 33008 ft 459 kts 189°
2026-04-22 19:36 48.15905 8.32154 33009 ft 460 kts 181°
2026-04-22 19:37 48.09492 8.32231 33005 ft 461 kts 179°
2026-04-22 19:37 48.03072 8.32331 33009 ft 461 kts 180°
2026-04-22 19:38 47.96700 8.32423 33012 ft 461 kts 180°
2026-04-22 19:38 47.90284 8.32507 33018 ft 461 kts 180°
2026-04-22 19:39 47.83867 8.32598 33020 ft 460 kts 180°
2026-04-22 19:39 47.77461 8.32681 33021 ft 460 kts 180°
2026-04-22 19:40 47.71056 8.32767 33022 ft 460 kts 180°
2026-04-22 19:40 47.64665 8.32860 33028 ft 458 kts 180°
2026-04-22 19:41 47.58661 8.32947 33026 ft 458 kts 180°
2026-04-22 19:41 47.53149 8.33031 33018 ft 459 kts 180°
2026-04-22 19:42 47.46763 8.33116 33019 ft 459 kts 180°
2026-04-22 19:42 47.40384 8.33191 33015 ft 459 kts 180°
2026-04-22 19:43 47.30825 8.33325 33023 ft 458 kts 179°
2026-04-22 19:43 47.24457 8.33853 33019 ft 459 kts 175°
2026-04-22 19:44 47.18102 8.34875 33019 ft 459 kts 173°
2026-04-22 19:44 47.11759 8.35896 33023 ft 458 kts 174°
2026-04-22 19:45 47.05409 8.36786 33021 ft 459 kts 175°
2026-04-22 19:45 46.99047 8.37614 33021 ft 459 kts 175°
2026-04-22 19:46 46.92681 8.38454 33018 ft 459 kts 175°
2026-04-22 19:46 46.86351 8.39310 33011 ft 462 kts 175°
2026-04-22 19:47 46.79919 8.40186 33016 ft 464 kts 175°
2026-04-22 19:47 46.73715 8.41025 33011 ft 470 kts 175°
2026-04-22 19:48 46.67185 8.41900 32986 ft 474 kts 175°
2026-04-22 19:48 46.60609 8.42784 32834 ft 475 kts 175°
2026-04-22 19:49 46.57334 8.43228 32506 ft 470 kts 175°
2026-04-22 19:49 46.54065 8.43670 31411 ft 475 kts 175°
2026-04-22 19:49 46.50770 8.44112 30398 ft 477 kts 175°
2026-04-22 19:49 46.47454 8.44555 29272 ft 480 kts 175°
2026-04-22 19:50 46.44114 8.44996 28052 ft 484 kts 175°
2026-04-22 19:50 46.40781 8.45435 27368 ft 476 kts 175°
2026-04-22 19:50 46.37510 8.45870 26606 ft 470 kts 175°
2026-04-22 19:50 46.34265 8.46300 25826 ft 465 kts 175°
2026-04-22 19:51 46.31060 8.46725 25064 ft 460 kts 175°
2026-04-22 19:51 46.27898 8.47147 24314 ft 454 kts 175°
2026-04-22 19:51 46.24775 8.47566 23581 ft 448 kts 175°
2026-04-22 19:51 46.21689 8.47997 22861 ft 443 kts 174°
2026-04-22 19:52 46.18639 8.48435 22146 ft 437 kts 174°
2026-04-22 19:52 46.15630 8.48873 21459 ft 432 kts 174°
2026-04-22 19:52 46.12704 8.49314 20800 ft 425 kts 172°
2026-04-22 19:52 46.09988 8.50141 20208 ft 421 kts 163°
2026-04-22 19:53 46.07251 8.51560 19595 ft 416 kts 159°
2026-04-22 19:53 46.04554 8.53028 19005 ft 412 kts 160°
2026-04-22 19:53 46.02746 8.54003 18616 ft 410 kts 160°
2026-04-22 19:53 45.99242 8.55886 18121 ft 398 kts 160°
2026-04-22 19:54 45.97514 8.56814 18036 ft 387 kts 160°
2026-04-22 19:54 45.95898 8.57681 17953 ft 377 kts 160°
2026-04-22 19:54 45.95320 8.57992 17937 ft 373 kts 160°
2026-04-22 19:55 45.92935 8.59273 17810 ft 358 kts 160°
2026-04-22 19:55 45.90668 8.60539 17686 ft 344 kts 155°
2026-04-22 19:55 45.88647 8.62259 17535 ft 332 kts 143°
2026-04-22 19:55 45.86938 8.64215 17089 ft 327 kts 141°
2026-04-22 19:56 45.85172 8.66262 16490 ft 325 kts 141°
2026-04-22 19:56 45.83419 8.68299 15942 ft 322 kts 141°
2026-04-22 19:56 45.81682 8.70318 15362 ft 320 kts 141°
2026-04-22 19:56 45.79965 8.72313 14865 ft 316 kts 141°
2026-04-22 19:57 45.78270 8.74277 14405 ft 311 kts 141°
2026-04-22 19:57 45.77159 8.75563 14100 ft 309 kts 142°
2026-04-22 19:57 45.75369 8.77240 13641 ft 307 kts 152°
2026-04-22 19:57 45.73493 8.78675 13186 ft 305 kts 152°
2026-04-22 19:58 45.71014 8.80580 12582 ft 306 kts 152°
2026-04-22 19:58 45.69748 8.81553 12275 ft 307 kts 152°
2026-04-22 19:58 45.67274 8.83457 11759 ft 304 kts 152°
2026-04-22 19:58 45.65409 8.84888 11391 ft 302 kts 152°
2026-04-22 19:59 45.63592 8.86282 11246 ft 290 kts 152°
2026-04-22 20:00 45.53279 8.90008 9519 ft 267 kts 169°
2026-04-22 20:00 45.51459 8.90501 9207 ft 265 kts 169°
2026-04-22 20:01 45.49651 8.90990 8915 ft 263 kts 169°
2026-04-22 20:01 45.47884 8.91466 8734 ft 255 kts 169°
2026-04-22 20:01 45.46145 8.91937 8306 ft 254 kts 169°
2026-04-22 20:01 45.44414 8.92408 7886 ft 253 kts 169°
2026-04-22 20:02 45.42697 8.92875 7470 ft 251 kts 169°
2026-04-22 20:02 45.40984 8.93341 7054 ft 249 kts 169°
2026-04-22 20:02 45.39284 8.93804 6638 ft 248 kts 169°
2026-04-22 20:02 45.37598 8.94262 6221 ft 246 kts 169°
2026-04-22 20:03 45.35920 8.94716 5867 ft 242 kts 169°
2026-04-22 20:03 45.34288 8.95157 5754 ft 240 kts 169°
2026-04-22 20:03 45.32647 8.95597 5688 ft 240 kts 169°
2026-04-22 20:03 45.31007 8.96040 5644 ft 240 kts 169°
2026-04-22 20:04 45.29318 8.96403 5583 ft 260 kts 181°
2026-04-22 20:04 45.27605 8.95803 5451 ft 248 kts 211°
2026-04-22 20:04 45.26402 8.94238 5332 ft 231 kts 238°
2026-04-22 20:04 45.25839 8.92209 5204 ft 215 kts 263°
2026-04-22 20:05 45.25902 8.90183 5080 ft 200 kts 285°
2026-04-22 20:05 45.26451 8.88421 4963 ft 195 kts 298°
2026-04-22 20:05 45.27097 8.86725 4841 ft 195 kts 298°
2026-04-22 20:05 45.27735 8.85028 4712 ft 195 kts 298°
2026-04-22 20:06 45.28478 8.83433 4585 ft 194 kts 313°
2026-04-22 20:06 45.29543 8.82266 4459 ft 194 kts 333°
2026-04-22 20:06 45.30821 8.81658 4335 ft 195 kts 350°
2026-04-22 20:06 45.32154 8.81315 4213 ft 194 kts 349°
2026-04-22 20:07 45.33481 8.80959 4089 ft 194 kts 349°
2026-04-22 20:07 45.34807 8.80599 3963 ft 194 kts 348°
2026-04-22 20:07 45.36128 8.80238 3837 ft 193 kts 348°
2026-04-22 20:07 45.37451 8.79888 3714 ft 193 kts 350°
2026-04-22 20:08 45.38776 8.79608 3606 ft 189 kts 352°
2026-04-22 20:08 45.40039 8.79365 3514 ft 179 kts 352°
2026-04-22 20:08 45.41251 8.79134 3379 ft 173 kts 352°
2026-04-22 20:08 45.42408 8.78913 3249 ft 167 kts 352°
2026-04-22 20:09 45.43545 8.78693 3121 ft 163 kts 351°
2026-04-22 20:09 45.44645 8.78419 2995 ft 158 kts 348°
2026-04-22 20:09 45.45697 8.78125 2863 ft 148 kts 348°
2026-04-22 20:09 45.46691 8.77849 2778 ft 146 kts 348°
2026-04-22 20:10 45.47687 8.77574 2718 ft 146 kts 348°
2026-04-22 20:10 45.48681 8.77300 2694 ft 146 kts 348°
2026-04-22 20:10 45.49661 8.77031 2727 ft 139 kts 348°
2026-04-22 20:10 45.50604 8.76772 2701 ft 138 kts 348°
2026-04-22 20:11 45.51546 8.76513 2624 ft 138 kts 348°
2026-04-22 20:11 45.52484 8.76255 2490 ft 137 kts 348°
2026-04-22 20:11 45.53423 8.75996 2329 ft 137 kts 348°
2026-04-22 20:11 45.54337 8.75745 2152 ft 137 kts 348°
2026-04-22 20:12 45.55289 8.75483 1975 ft 136 kts 348°
2026-04-22 20:12 45.56221 8.75239 1797 ft 136 kts 349°
2026-04-22 20:12 45.57136 8.74986 1614 ft 136 kts 348°
2026-04-22 20:12 45.58060 8.74735 1462 ft 135 kts 348°
2026-04-22 20:13 45.58984 8.74482 1289 ft 135 kts 348°
2026-04-22 20:13 45.59903 8.74221 1119 ft 135 kts 348°
2026-04-22 20:13 45.60822 8.73962 929 ft 134 kts 347°
2026-04-22 20:13 45.61737 8.73704 769 ft 134 kts 348°
2026-04-22 20:14 45.62561 8.73477 738 ft 99 kts 348°
2026-04-22 20:14 45.62961 8.73365 736 ft 28 kts 347°
2026-04-22 20:14 45.63134 8.73255 736 ft 24 kts 324°
2026-04-22 20:14 45.63248 8.73095 736 ft 23 kts 304°
2026-04-22 20:15 45.63342 8.72895 736 ft 26 kts 304°
2026-04-22 20:15 45.63409 8.72686 736 ft 19 kts 268°
2026-04-22 20:15 45.63385 8.72484 737 ft 22 kts 259°
2026-04-22 20:15 45.63354 8.72256 739 ft 24 kts 258°
2026-04-22 20:16 45.63324 8.72022 737 ft 21 kts 255°
2026-04-22 20:16 45.63231 8.71984 736 ft 15 kts 166°
2026-04-22 20:16 45.63115 8.72015 737 ft 19 kts 169°
2026-04-22 20:16 45.62997 8.71992 736 ft 17 kts 250°
2026-04-22 20:17 45.62974 8.71815 736 ft 20 kts 258°
2026-04-22 20:17 45.62962 8.71667 736 ft 11 kts 291°
2026-04-22 20:17 45.63029 8.71612 736 ft 10 kts 326°
2026-04-22 20:17 45.63037 8.71605 736 ft 0 kts 327°